Погода в Ялгубе

Россия / Республика Карелия     61°53′00″N   34°33′21″E
темп.,
°C
ветер,
м/с
пор.,
м/с
влажн.,
%
обл.,
%
осадки,
мм/ч
давл.,
гПа
погр.,
м
28 июня, вт
вт2800:00+12св5106776 0.0 1026287
03:00+10св587482 0.0 1027302
06:00+10всв577560 0.0 1028357
09:00+12в45650 0.0 1029466
12:00+14в34530 0.0 1029561
15:00+16вюв24430 0.0 1028641
18:00+17вюв13400 0.0 1027691
21:00+14св11540 0.0 102611
29 июня, ср
ср2900:00+12св22630 0.0 102711
03:00+11всв22820 0.0 102716
06:00+13вюв23750 0.0 1027145
09:00+15вюв34620 0.0 1027324
12:00+16вюв33505 0.0 1026545
15:00+18юв224168 0.0 1025580
18:00+18юв114244 0.0 1023303
21:00+15юв11535 0.0 102211
30 июня, чт
чт3000:00+12з114826 0.0 102210
03:00+12зсз22565 0.0 102311
06:00+14зсз226128 0.0 102351
09:00+20сз23485 0.0 1022396
12:00+23вюв12395 0.0 1022914
15:00+23юв22415 0.0 1021843
18:00+23ююв22445 0.0 1020252
21:00+19юз12585 0.0 102011
1 июля, пт
пт100:00+17з22640 0.0 102120
03:00+15з22750 0.0 102118
06:00+17з22690 0.0 102157
09:00+23зсз244965 0.0 1021333
12:00+26з233848 0.0 10201029
15:00+27юз133519 0.0 10191718
18:00+26з464299 0.0 1018681
21:00+21з356085 0.0 101877
2 июля, сб
сб200:00+17сз236783 0.0 101927
03:00+15ссв22863 0.0 101922
06:00+17св367682 0.0 1020170
09:00+18всв24695 0.0 1020366
12:00+21вюв236150 0.0 1019669
15:00+23вюв23556 0.0 1019794
18:00+23вюв12535 0.0 1018550
21:00+20св22679 0.0 101811